sat.trackr.live / text

‹ back to catalog

STARLINK-6096

NORAD 56103 · 2023-046L

PAYLOAD ACTIVE UNKNOWN

§ Identity

Operator
Country
US
Launch date
2023-03-29
Launch site
AFETR
Launch vehicle
Mass (kg)
RCS (m²)

Purposes: comms

External: N2YO · Heavens-Above · Gunter

§ Orbital elements

Epoch: 2026-05-25T04:33:58.209120Z

Period
94.27 min
Inclination
43.0047°
Eccentricity
0.0001372
Mean motion
15.27576976 rev/d
Perigee alt
482.1 km
Apogee alt
484.0 km
Semi-major
6,861.2 km
B*
1.4807e-5
RAAN
89.3181°
Arg perigee
265.0590°
Mean anomaly
95.0105°
Rev number
17,373

§ Raw data

STARLINK-60961 56103U 23046L   26145.19025705  .00000145  00000+0  14807-4 0  99902 56103  43.0047  89.3181 0001372 265.0590  95.0105 15.27576976173731

JSON: /api/v1/satellites/56103 · /tle

For live sub-satellite position, see the globe view (requires WebGL).

§ Visibility from observer

Set your observer location to see the next 7 days of passes ≥ 10°. The values pass through the URL so the page stays shareable.

No JS? Fill the form by hand. The geolocation button needs JavaScript.